Regional Weather Roundup
Issued by NWS

Home | Current Version | Previous Version | Text Only | Print | Product List | Glossary Off
Versions: 1 2 3 4 5 6 7 8 9 10 11 12 13 14 15 16 17 18 19 20 21 22 23 24 25 26 27 28 29 30 31 32 33 34 35 36 37 38 39 40 41 42 43 44 45 46 47 48 49 50

000
ASUS43 KFSD 170702
RWRSD

WEATHER ROUNDUP FOR SOUTH DAKOTA
NATIONAL WEATHER SERVICE SIOUX FALLS SD
200 AM CDT THU AUG 17 2017

NOTE: "FAIR" INDICATES FEW OR NO CLOUDS BELOW 12,000 FEET WITH NO
SIGNIFICANT WEATHER AND/OR OBSTRUCTIONS TO VISIBILITY.


SDZ001>005-009-010-012>017-170800-
NORTHWEST AND NORTH CENTRAL SOUTH DAKOTA

CITY           SKY/WX    TMP DP  RH WIND       PRES   REMARKS
BUFFALO          N/A     60  49  66 S12       29.88F
FAITH            N/A     58  50  75 S10       29.96S
MOBRIDGE       CLEAR     57  56  96 CALM      29.89F
$$

SDZ012>016-024>037-041>051-057-063-072>074-170800-
SOUTHWEST AND SOUTH CENTRAL SOUTH DAKOTA

CITY           SKY/WX    TMP DP  RH WIND       PRES   REMARKS
RAPID CTY ARPT CLEAR     56  51  84 SE6       29.99S
PIERRE         CLEAR     57  53  86 W7        29.91S
CUSTER         CLEAR     49  43  80 W6        30.12F
ELLSWORTH AFB  CLEAR     60  52  74 CALM      29.98F
PHILIP         CLEAR     52  49  89 W5        29.97R
PINE RIDGE     CLEAR     51  50  96 E5        30.02F
SPEARFISH      FAIR      59  43  55 CALM      29.99F
WINNER         FAIR      59  52  77 W7        29.93F
$$

SDZ004>011-016>023-039-040-170800-
NORTHEAST SOUTH DAKOTA

CITY           SKY/WX    TMP DP  RH WIND       PRES   REMARKS
ABERDEEN       CLEAR     59  58  96 NW10      29.84S
WATERTOWN      CLOUDY    63  63 100 NW14      29.77R
BROOKINGS      CLOUDY    65  63  93 NW15      29.75S
SISSETON         N/A     64  64 100 NW15      29.75S
$$

SDZ017-020-022-023-036>040-048>070-170800-
SOUTHEAST SOUTH DAKOTA

CITY           SKY/WX    TMP DP  RH WIND       PRES   REMARKS
SIOUX FALLS    CLOUDY    67  67 100 NW14      29.76R
HURON          CLEAR     60  60 100 NW12      29.82S
CHAMBERLAIN    CLEAR     60  60  97 W8        29.90F
MITCHELL       CLOUDY    63  61  93 NW12      29.83R
YANKTON        CLOUDY    66  63  88 W15G23    29.81R
$$

ABBREVIATIONS USED IN REMARKS
   TC - TEMPERATURE IN CELSIUS
  WCI - WIND CHILL INDEX
   HX - HEAT INDEX
  VSB - VISIBILITY





USA.gov is the U.S. government's official web portal to all federal, state and local government web resources and services.